• In Belarus
  • List of Countries
  • For 7 days
  • Water Temperature
  • Satellite Maps
  • Weather Map
  • Weather Widgets
  • user-avatar
    Login

    Hourly Weather Salzburg

    Today, 18 February, Sunday

    Time Temperature Precipitation Wind Pressure Humidity
    00:00 -4°C° 0.5 mm 1 mps 623 mmHg 97%
    01:00 -6°C° 0.5 mm 1 mps 623 mmHg 97%
    02:00 -6°C° 0.4 mm 1 mps 624 mmHg 97%
    03:00 -6°C° 0.4 mm 1 mps 624 mmHg 97%
    04:00 -7°C° 0.4 mm 1 mps 624 mmHg 97%
    05:00 -7°C° 0.3 mm 1 mps 624 mmHg 97%
    06:00 -7°C° 0.3 mm 1 mps 624 mmHg 97%
    07:00 -8°C° 0.3 mm 1 mps 624 mmHg 97%
    08:00 -7°C° 0.2 mm 1 mps 625 mmHg 95%
    09:00 -6°C° 0.2 mm 1 mps 625 mmHg 94%
    10:00 -6°C° 0.2 mm 1 mps 626 mmHg 92%
    11:00 -4°C° 0.1 mm 1 mps 626 mmHg 91%
    12:00 -4°C° 0.1 mm 1 mps 626 mmHg 91%
    13:00 -3°C° 0.1 mm 1 mps 626 mmHg 90%
    14:00 -3°C° 0.1 mm 1 mps 626 mmHg 90%
    15:00 -3°C° 0.1 mm 1 mps 626 mmHg 90%
    16:00 -4°C° 0.1 mm 1 mps 625 mmHg 90%
    17:00 -4°C° 0.1 mm 1 mps 625 mmHg 92%
    18:00 -6°C° 0.1 mm 1 mps 625 mmHg 93%
    19:00 -7°C° 0.1 mm 1 mps 625 mmHg 95%
    20:00 -8°C° 0 mm 1 mps 625 mmHg 95%
    21:00 -9°C° 0 mm 1 mps 625 mmHg 94%
    22:00 -9°C° 0 mm 1 mps 624 mmHg 94%
    23:00 -10°C° 0 mm 1 mps 624 mmHg 94%

    Tomorrow, 19 February, Monday

    Time Temperature Precipitation Wind Pressure Humidity
    00:00 -10°C° 0 mm 1 mps 624 mmHg 93%
    01:00 -11°C° 0 mm 1 mps 623 mmHg 92%
    02:00 -11°C° 0 mm 1 mps 623 mmHg 91%
    03:00 -11°C° 0 mm 1 mps 622 mmHg 90%
    04:00 -12°C° 0 mm 1 mps 622 mmHg 88%
    05:00 -12°C° 0 mm 1 mps 622 mmHg 87%
    06:00 -12°C° 0 mm 1 mps 622 mmHg 85%
    07:00 -12°C° 0 mm 1 mps 621 mmHg 83%
    08:00 -10°C° 0 mm 1 mps 622 mmHg 81%
    09:00 -8°C° 0 mm 1 mps 623 mmHg 79%
    10:00 -6°C° 0 mm 1 mps 623 mmHg 77%
    11:00 -4°C° 0 mm 1 mps 623 mmHg 77%
    12:00 -3°C° 0 mm 1 mps 623 mmHg 78%
    13:00 -3°C° 0 mm 1 mps 623 mmHg 79%
    14:00 -3°C° 0 mm 1 mps 623 mmHg 81%
    15:00 -3°C° 0 mm 1 mps 622 mmHg 83%
    16:00 -3°C° 0 mm 1 mps 622 mmHg 86%
    17:00 -4°C° 0 mm 1 mps 622 mmHg 89%
    18:00 -7°C° 0 mm 1 mps 621 mmHg 92%
    19:00 -8°C° 0 mm 1 mps 621 mmHg 95%
    20:00 -8°C° 0.1 mm 1 mps 621 mmHg 95%
    21:00 -9°C° 0.1 mm 0 mps 621 mmHg 95%
    22:00 -9°C° 0.1 mm 0 mps 621 mmHg 95%
    23:00 -9°C° 0.1 mm 0 mps 621 mmHg 95%

    Day after tomorrow, 20 February, Tuesday

    Time Temperature Precipitation Wind Pressure Humidity
    00:00 -9°C° 0.1 mm 0 mps 621 mmHg 95%
    01:00 -9°C° 0.1 mm 0 mps 620 mmHg 95%
    02:00 -9°C° 0.1 mm 1 mps 620 mmHg 95%
    03:00 -9°C° 0.1 mm 1 mps 620 mmHg 95%
    04:00 -10°C° 0.1 mm 1 mps 620 mmHg 95%
    05:00 -10°C° 0.1 mm 1 mps 619 mmHg 95%
    06:00 -10°C° 0.1 mm 1 mps 619 mmHg 95%
    07:00 -10°C° 0.1 mm 1 mps 619 mmHg 95%
    08:00 -9°C° 0.1 mm 1 mps 619 mmHg 93%
    09:00 -8°C° 0.1 mm 1 mps 620 mmHg 91%
    10:00 -7°C° 0.1 mm 1 mps 620 mmHg 89%
    11:00 -7°C° 0.1 mm 1 mps 620 mmHg 88%
    12:00 -6°C° 0.1 mm 1 mps 620 mmHg 87%
    13:00 -4°C° 0.1 mm 1 mps 619 mmHg 86%
    14:00 -6°C° 0.1 mm 1 mps 619 mmHg 87%
    15:00 -6°C° 0.1 mm 1 mps 619 mmHg 87%
    16:00 -7°C° 0.1 mm 2 mps 619 mmHg 88%
    17:00 -7°C° 0.1 mm 1 mps 619 mmHg 90%
    18:00 -8°C° 0.1 mm 1 mps 619 mmHg 92%
    19:00 -9°C° 0.1 mm 1 mps 619 mmHg 95%
    20:00 -9°C° 0.1 mm 1 mps 619 mmHg 95%
    21:00 -9°C° 0.1 mm 1 mps 619 mmHg 95%
    22:00 -10°C° 0.1 mm 1 mps 619 mmHg 95%
    23:00 -10°C° 0.1 mm 1 mps 619 mmHg 95%

    21 February, Wednesday

    Time Temperature Precipitation Wind Pressure Humidity
    00:00 -10°C° 0.1 mm 1 mps 619 mmHg 95%
    01:00 -11°C° 0.1 mm 1 mps 619 mmHg 95%
    02:00 -11°C° 0.1 mm 1 mps 619 mmHg 95%
    03:00 -11°C° 0.1 mm 1 mps 619 mmHg 94%
    04:00 -11°C° 0.1 mm 1 mps 619 mmHg 94%
    05:00 -11°C° 0.1 mm 1 mps 619 mmHg 94%
    06:00 -11°C° 0.1 mm 1 mps 619 mmHg 94%
    07:00 -11°C° 0.1 mm 1 mps 619 mmHg 94%
    08:00 -10°C° 0.1 mm 1 mps 620 mmHg 93%
    09:00 -9°C° 0.1 mm 1 mps 620 mmHg 91%
    10:00 -7°C° 0.1 mm 1 mps 620 mmHg 90%
    11:00 -7°C° 0.1 mm 1 mps 620 mmHg 88%
    12:00 -6°C° 0.1 mm 1 mps 620 mmHg 87%
    13:00 -4°C° 0.1 mm 1 mps 620 mmHg 85%
    14:00 -4°C° 0.1 mm 1 mps 620 mmHg 86%
    15:00 -6°C° 0.1 mm 2 mps 619 mmHg 87%
    16:00 -7°C° 0.1 mm 2 mps 619 mmHg 88%
    17:00 -7°C° 0.2 mm 2 mps 619 mmHg 90%
    18:00 -7°C° 0.2 mm 1 mps 619 mmHg 93%
    19:00 -8°C° 0.2 mm 1 mps 619 mmHg 95%
    20:00 -8°C° 0.2 mm 1 mps 618 mmHg 95%
    21:00 -9°C° 0.2 mm 1 mps 618 mmHg 95%
    22:00 -9°C° 0.2 mm 1 mps 618 mmHg 95%
    23:00 -9°C° 0.1 mm 1 mps 618 mmHg 95%

    22 February, Thursday

    Time Temperature Precipitation Wind Pressure Humidity
    00:00 -10°C° 0.1 mm 1 mps 618 mmHg 95%
    01:00 -10°C° 0.1 mm 1 mps 617 mmHg 96%
    02:00 -10°C° 0.2 mm 1 mps 617 mmHg 95%
    03:00 -10°C° 0.2 mm 1 mps 616 mmHg 95%
    04:00 -10°C° 0.2 mm 1 mps 616 mmHg 95%
    05:00 -10°C° 0.3 mm 1 mps 616 mmHg 95%
    06:00 -12°C° 0.3 mm 2 mps 615 mmHg 95%
    07:00 -12°C° 0.3 mm 2 mps 615 mmHg 95%
    08:00 -10°C° 0.4 mm 2 mps 615 mmHg 94%
    09:00 -10°C° 0.4 mm 2 mps 615 mmHg 93%
    10:00 -9°C° 0.4 mm 2 mps 615 mmHg 92%
    11:00 -9°C° 0.4 mm 2 mps 615 mmHg 92%
    12:00 -8°C° 0.4 mm 2 mps 615 mmHg 91%
    13:00 -8°C° 0.4 mm 2 mps 615 mmHg 91%
    14:00 -8°C° 0.3 mm 2 mps 615 mmHg 91%
    15:00 -8°C° 0.3 mm 2 mps 615 mmHg 92%
    16:00 -8°C° 0.3 mm 2 mps 615 mmHg 93%
    17:00 -8°C° 0.2 mm 2 mps 615 mmHg 94%
    18:00 -8°C° 0.2 mm 1 mps 615 mmHg 95%
    19:00 -9°C° 0.2 mm 1 mps 614 mmHg 96%
    20:00 -9°C° 0.1 mm 1 mps 614 mmHg 96%
    21:00 -10°C° 0.1 mm 1 mps 614 mmHg 96%
    22:00 -10°C° 0.1 mm 1 mps 614 mmHg 96%
    23:00 -11°C° 0 mm 1 mps 614 mmHg 95%

    23 February, Friday

    Time Temperature Precipitation Wind Pressure Humidity
    00:00 -11°C° 0 mm 1 mps 614 mmHg 95%
    01:00 -11°C° 0 mm 1 mps 614 mmHg 94%
    02:00 -11°C° 0 mm 1 mps 614 mmHg 94%
    03:00 -11°C° 0 mm 1 mps 614 mmHg 94%
    04:00 -11°C° 0 mm 1 mps 614 mmHg 94%
    05:00 -11°C° 0.1 mm 1 mps 614 mmHg 94%
    06:00 -11°C° 0.1 mm 1 mps 614 mmHg 94%
    07:00 -11°C° 0.1 mm 1 mps 615 mmHg 94%
    08:00 -9°C° 0.1 mm 1 mps 615 mmHg 93%
    09:00 -8°C° 0.1 mm 1 mps 616 mmHg 92%
    10:00 -7°C° 0.1 mm 1 mps 616 mmHg 91%
    11:00 -7°C° 0.1 mm 2 mps 616 mmHg 90%
    12:00 -7°C° 0.1 mm 2 mps 616 mmHg 90%
    13:00 -6°C° 0.1 mm 2 mps 616 mmHg 89%
    14:00 -7°C° 0.2 mm 2 mps 616 mmHg 89%
    15:00 -7°C° 0.2 mm 2 mps 616 mmHg 90%
    16:00 -7°C° 0.2 mm 2 mps 616 mmHg 91%
    17:00 -8°C° 0.3 mm 2 mps 616 mmHg 92%
    18:00 -9°C° 0.3 mm 2 mps 616 mmHg 94%
    19:00 -10°C° 0.3 mm 2 mps 617 mmHg 95%
    20:00 -10°C° 0.2 mm 2 mps 617 mmHg 95%
    21:00 -12°C° 0.2 mm 2 mps 617 mmHg 94%
    22:00 -13°C° 0.2 mm 2 mps 617 mmHg 93%
    23:00 -13°C° 0.1 mm 2 mps 617 mmHg 93%
    Show more